Terug naar catalogus

STARLINK-30810

ActiefCommunicatieVLEO
NORAD 58178·PAYLOAD·🇺🇸 United States

Gelanceerd Oct 30, 2023 vanaf Cape Canaveral Space Force Station

Loading…

Volgende Passages (komende 24 uur)

TLE

VersSource: CelesTrak SupGP

Epoch: Sep 14, 2026, 22:11 UTC

1 58178C 23167D   26257.92479167 -.00041088  00000+0 -14883-2 0  2570
2 58178  42.9994 154.3073 0001402 268.6107 350.7608 15.27597725    18

Volg STARLINK-30810 in realtime met AllMySat

Download on the App Store